Weather History for KDAL - May, 2012

Change the Weather History Date:

Sunday, May 20, 2012

  Actual Average Record
Temperature  
Mean Temperature 80 °F -  
Max Temperature 88 °F 83 °F 96 °F (2005)
Min Temperature 71 °F 64 °F 57 °F (2002)
Cooling Degree Days 14    
Growing Degree Days 30 (Base 50)    
Moisture  
Dew Point 59 °F    
Average Humidity 51    
Maximum Humidity 73    
Minimum Humidity 28    
Precipitation  
Precipitation 0.01 in - - ()
Sea Level Pressure  
Sea Level Pressure 30.05 in    
Wind  
Wind Speed 9 mph (SE)    
Max Wind Speed 16 mph    
Max Gust Speed 22 mph    
Visibility 10 miles    
Events      
Averages and records for this station are not official NWS values.
T = Trace of Precipitation, MM = Missing Value Source: NWS Daily Summary

Daily Weather History Graph

Daily Weather History Graph

Search for Another Location

Airport or City:

Trip Planner

Search our weather history database for the weather conditions in past years. The results will help you decide how hot, cold, wet, or windy it might be!

Date:

Astronomy

May. 20, 2012 Rise Set
Actual Time 6:24 AM CDT 8:23 PM CDT
Civil Twilight 5:57 AM CDT 8:51 PM CDT
Nautical Twilight 5:23 AM CDT 9:24 PM CDT
Astronomical Twilight 4:48 AM CDT 10:00 PM CDT
Moon 6:05 AM CDT (5/20) 8:22 PM CDT (5/20)
Length of Visible Light 14h 53m
Length of Day
13h 58m
Waning Crescent, 0% of the Moon is Illuminated
May 20
Waning Crescent
May 20
New
May 28
First Quarter
Jun 4
Full
Jun 11
Last Quarter

Hourly Weather History & Observations

Time (CDT) Temp. Heat Index Dew Point Humidity Pressure Visibility Wind Dir Wind Speed Gust Speed Precip Events Conditions
12:53 AM 77.0 °F - 60.1 °F 56% 29.95 in 10.0 mi SSE 16.1 mph - N/A   Scattered Clouds
1:53 AM 75.9 °F - 60.1 °F 58% 29.95 in 10.0 mi South 13.8 mph 21.9 mph N/A   Mostly Cloudy
2:53 AM 75.9 °F - 60.1 °F 58% 29.97 in 10.0 mi SSW 6.9 mph - N/A   Mostly Cloudy
3:53 AM 73.9 °F - 61.0 °F 64% 29.97 in 10.0 mi SSW 6.9 mph - N/A   Mostly Cloudy
4:53 AM 73.0 °F - 61.0 °F 66% 29.98 in 10.0 mi South 9.2 mph - N/A   Mostly Cloudy
5:53 AM 71.1 °F - 61.0 °F 70% 30.01 in 10.0 mi Calm Calm - N/A   Mostly Cloudy
6:53 AM 71.1 °F - 62.1 °F 73% 30.06 in 10.0 mi East 6.9 mph - 0.01 in   Mostly Cloudy
7:53 AM 73.0 °F - 62.1 °F 68% 30.09 in 10.0 mi ESE 8.1 mph - N/A   Mostly Cloudy
8:53 AM 75.0 °F - 63.0 °F 66% 30.11 in 10.0 mi Variable 4.6 mph - N/A   Scattered Clouds
9:53 AM 77.0 °F - 62.1 °F 60% 30.14 in 10.0 mi Calm Calm - N/A   Scattered Clouds
10:53 AM 80.1 °F 81.2 °F 62.1 °F 54% 30.14 in 10.0 mi ESE 6.9 mph - N/A   Mostly Cloudy
11:53 AM 81.0 °F 81.9 °F 62.1 °F 52% 30.10 in 10.0 mi Variable 6.9 mph - N/A   Scattered Clouds
12:53 PM 82.9 °F 82.6 °F 57.9 °F 42% 30.09 in 10.0 mi South 8.1 mph 19.6 mph N/A   Scattered Clouds
1:53 PM 84.9 °F 84.2 °F 57.9 °F 40% 30.08 in 10.0 mi Variable 6.9 mph - N/A   Scattered Clouds
2:53 PM 87.1 °F 85.9 °F 57.0 °F 36% 30.07 in 10.0 mi SE 13.8 mph 19.6 mph N/A   Scattered Clouds
3:53 PM 87.1 °F 85.3 °F 55.0 °F 33% 30.05 in 10.0 mi Variable 3.5 mph - N/A   Scattered Clouds
4:53 PM 88.0 °F 86.1 °F 55.0 °F 32% 30.03 in 10.0 mi SE 10.4 mph 21.9 mph N/A   Scattered Clouds
5:53 PM 88.0 °F - 51.1 °F 28% 30.02 in 10.0 mi East 6.9 mph - N/A   Scattered Clouds
6:53 PM 86.0 °F 84.9 °F 57.0 °F 37% 30.03 in 10.0 mi SE 11.5 mph - N/A   Scattered Clouds
7:53 PM 82.9 °F - 52.0 °F 34% 30.04 in 10.0 mi SE 8.1 mph - N/A   Mostly Cloudy
8:53 PM 81.0 °F 80.5 °F 54.0 °F 39% 30.05 in 10.0 mi ESE 8.1 mph - N/A   Mostly Cloudy
9:53 PM 79.0 °F - 57.0 °F 47% 30.06 in 10.0 mi SE 6.9 mph - N/A   Mostly Cloudy
10:53 PM 77.0 °F - 57.9 °F 52% 30.08 in 10.0 mi East 3.5 mph - N/A   Mostly Cloudy
11:53 PM 73.9 °F - 59.0 °F 59% 30.08 in 10.0 mi Calm Calm - N/A   Scattered Clouds